Retour au catalogue

STARLINK-32474

ActifCommunicationsVLEO
NORAD 61260·PAYLOAD·🇺🇸 United States

Lancé Sep 25, 2024 depuis Vandenberg Space Force Base

Loading…

Prochains Passages (prochaines 24 heures)

TLE

FraisSource: CelesTrak SupGP

Époque: Sep 15, 2026, 02:44 UTC

1 61260C 24175T   26258.11437500  .00009476  00000+0  28004-3 0  2588
2 61260  53.1590  31.0892 0001214  93.0671  97.1757 15.34377071    12

Suivez STARLINK-32474 en temps réel avec AllMySat

Download on the App Store